Hourly Data Report for March 13, 2006

TORONTO CITY
ONTARIO

43°40'00.000" N
79°24'00.000" W
112.50 m
6158355
71508
XTO

Download Data

Hourly Data (March 2006)
Hourly Data Report for March 13, 2006
TIME
LST
Temp Definition
°C
Dew Point Definition
°C
Rel Hum Definition
%
Precip. Amount Definition
mm

Wind Dir Definition
10's deg

Wind Spd Definition
km/h
Visibility Definition
km
Stn Press Definition
kPa
Hmdx Definition


Wind Chill Definition


Weather Definition


00:00 9.6 2.6 62   LegendMM LegendMM   100.06     LegendNANA
01:00 8.8 0.6 56   LegendMM LegendMM   100.00     LegendNANA
02:00 7.9 -3.0 46   LegendMM LegendMM   100.01     LegendNANA
03:00 7.1 -2.1 52   LegendMM LegendMM   99.87     LegendNANA
04:00 6.3 -2.2 54   LegendMM LegendMM   99.78     LegendNANA
05:00 4.3 1.5 82   LegendMM LegendMM   99.47     LegendNANA
06:00 4.0 1.8 86   LegendMM LegendMM   99.33     LegendNANA
07:00 3.5 2.6 94   LegendMM LegendMM   99.20     LegendNANA
08:00 4.1 3.7 97   LegendMM LegendMM   98.98     LegendNANA
09:00 4.7 4.3 97   LegendMM LegendMM   98.77     LegendNANA
10:00 5.6 5.3 98   LegendMM LegendMM   98.82     LegendNANA
11:00 6.6 6.4 99   LegendMM LegendMM   98.85     LegendNANA
12:00 8.0 7.7 98   LegendMM LegendMM   98.61     LegendNANA
13:00 7.9 7.4 97   LegendMM LegendMM   98.65     LegendNANA
14:00 8.8 8.3 97   LegendMM LegendMM   98.64     LegendNANA
15:00 8.7 8.3 97   LegendMM LegendMM   98.51     LegendNANA
16:00 7.8 7.4 97   LegendMM LegendMM   98.30     LegendNANA
17:00 7.6 7.4 99   LegendMM LegendMM   98.15     LegendNANA
18:00 9.1 9.1 100   LegendMM LegendMM   98.11     LegendNANA
19:00 9.9 9.9 100   LegendMM LegendMM   98.01     LegendNANA
20:00 11.3 11.3 100   LegendMM LegendMM   97.90     LegendNANA
21:00 11.1 10.8 98   LegendMM LegendMM   97.83     LegendNANA
22:00 11.7 11.0 95   LegendMM LegendMM   97.77     LegendNANA
23:00 11.9 8.2 78   LegendMM LegendMM   97.90     LegendNANA

Notes on Data Quality.

Legend

  • E = Estimated
  • M = Missing
  • NA = Not Available*
  • [empty] = Indicates an unobserved value
Date modified: